Terug naar catalogus

COSMOS 252 DEB *

ActiefLEO
NORAD 3686·DEBRIS·🇷🇺 Russia

Gelanceerd Nov 1, 1968 vanaf Baikonur Cosmodrome

Loading…

Volgende Passages (komende 24 uur)

TLE

VersSource: Space-Track

Epoch: Sep 14, 2026, 12:38 UTC

1 03686U 68097AD  26257.52643919  .00000606  00000-0  64209-3 0  9990
2 03686  62.2606 232.7978 0624682 191.3443 167.2912 13.18198727708547

Volg COSMOS 252 DEB * in realtime met AllMySat

Download on the App Store